Regional Weather Roundup
Issued by NWS

Home | Current Version | Previous Version | Text Only | Print | Product List | Glossary On
Versions: 1 2 3 4 5 6 7 8 9 10 11 12 13 14 15 16 17 18 19 20 21 22 23 24 25 26 27 28 29 30 31 32 33 34 35 36 37 38 39 40 41 42 43 44 45 46 47 48 49 50
000
ASUS43 KTOP 281908
RWRKS

WEATHER ROUNDUP FOR KANSAS
NATIONAL WEATHER SERVICE GOODLAND KS
200 PM CDT WED SEP 28 2016

NOTE:  "FAIR" INDICATES FEW OR NO CLOUDS BELOW 12,000 FEET WITH NO
SIGNIFICANT WEATHER AND/OR OBSTRUCTIONS TO VISIBILITY.

KSZ001>006-013>018-027>032-041>047-282000-
NORTHWEST KANSAS

CITY           SKY/WX    TMP DP  RH WIND       PRES   REMARKS
GOODLAND       SUNNY     79  40  24 VRB3      30.25S
HAYS           SUNNY     75  43  31 NE15      30.19F
HILL CITY      SUNNY     76  47  35 NE8G18    30.22S
RUSSELL        SUNNY     74  41  30 N12G17    30.19R
$$

KSZ061>065-074>080-084>089-282000-
SOUTHWEST KANSAS

CITY           SKY/WX    TMP DP  RH WIND       PRES   REMARKS
DODGE CITY     SUNNY     82  44  26 NE14      30.19R
ELKHART          N/A     86  43  22 N2          N/A
GARDEN CITY    SUNNY     83  41  22 NE13G18   30.19S
GREAT BEND     SUNNY     75  43  31 NE15      30.18S
LIBERAL        SUNNY     86  43  22 NE9       30.19S
PRATT          SUNNY     75  42  30 NE15G23   30.16S
$$

KSZ066>073-081>083-090>101-282000-
SOUTHEAST KANSAS

CITY           SKY/WX    TMP DP  RH WIND       PRES   REMARKS
CHANUTE        LGT RAIN  73  46  38 N15G22    30.08R
COFFEYVILLE    SUNNY     76  40  27 N20G25    30.07R
HUTCHINSON     SUNNY     75  41  29 N14G20    30.15F
MEDICINE LODGE   N/A     80  51  36 NE13G21   30.13S
NEWTON         SUNNY     71  41  33 N15G22    30.15R
PARSONS        SUNNY     75  41  29 N16G22    30.08S
WICHITA INTL   SUNNY     76  43  30 N16       30.13S
WICHITA JABRA  LGT RAIN  74  43  32 N14G23    30.13S
WICHITA MCCONL SUNNY     74  43  32 N18       30.13S
WINFIELD       SUNNY     77  47  34 N18       30.12R
$$

KSZ007>012-019>026-033>040-048>060-102>105-282000-
NORTHEAST KANSAS

CITY           SKY/WX    TMP DP  RH WIND       PRES   REMARKS
CONCORDIA      SUNNY     71  47  42 NE14      30.17F
EMPORIA        SUNNY     69  49  48 N12G21    30.12R
LAWRENCE       SUNNY     67  48  50 N9G21     30.13R
MANHATTAN      SUNNY     69  47  45 NE12G25   30.15S
MARYSVILLE     SUNNY     66  45  45 NE9G17    30.17S
OLATHE IND     SUNNY     66  47  50 N18       30.12R
OLATHE EXE     SUNNY     65  45  48 N14G22    30.11R
SALINA         SUNNY     74  38  27 N20       30.16S
TOPEKA BILLARD SUNNY     67  47  48 N14G22    30.13S
TOPEKA FORBES  SUNNY     68  48  48 N16       30.14R
$$



USA.gov is the U.S. government's official web portal to all federal, state and local government web resources and services.